Location: Curupao
(10.4996°N, 66.6442°W)
Time: 10:44:48
(UTC+00:00)

Cosmos 2233 Rocket - Pass Details

Date: 23 May 2024
Orbit: 954 x 989 km, 82.9° (Epoch: 19 June)

Event Time Altitude Azimuth Distance (km) Brightness Sun altitude
Rises 00:00:40 0° 350° (N) 3,689 7.5 -18.3°
Reaches altitude 10° 00:03:12 10° 347° (NNW) 2,741 6.9 -18.9°
Maximum altitude 00:09:24 63° 268° (W) 1,093 4.4 -20.3°
Drops below altitude 10° 00:15:36 10° 188° (S) 2,734 6.1 -21.6°
Enters shadow 00:17:39 - 185° (S) 3,497 6.7 -22.1°
